SCP
0 0 0 0 0 0 0 0 0 0 0 0 0 0 0 0 -0 0 0 -0 -0 0 0 -0 -0 0 -0 -0 -0 0 0 0 0 0 0 0 0 0 0 0 -0 -0 -0 -0
0 0 0 0 0 0 0 0 0 0 0 0 0 0 0 0 0 0 0 -0 -0 -0 -0 0 -0 0 0 -0 -0 -0 0 0 0 0 0 0 0 -0 -0 -0 -0 -0 -0 -0
0 0 0 0 0 0 0 0 0 0 0 0 0 0 0 0 0 0 0 0 -0 -0 -0 -0 0 -0 0 -0 -0 -0 -0 0 0 0 0 0 0 0 0 -0 -0 -0 -0 -0
0 0 0 0 0 0 0 0 0 0 0 0 0 0 0 0 0 0 0 -0 0 -0 -0 -0 -0 0 0 -0 -0 0 0 0 0 0 0 0 0 -0 -0 -0 -0 -0 -0 -0
0 0 0 0 0 0 0 0 0 0 0 0 0 0 0 0 0 0 0 0 0 -0 -0 -0 -0 0 0 0 0 0 0 0 0 0 0 0 0 -0 -0 -0 -0 0 -0 -0
0 0 0 0 0 0 0 0 0 0 0 0 0 0 0 0 0 0 0 0 0 0 -0 -0 -0 0 0 0 0 0 0 0 0 0 -0 0 0 0 -0 -0 -0 -0 -0 -0
0 0 0 0 0 0 0 0 0 0 0 0 0 0 0 0 0 0 0 0 0 0 0 0 0 -0 0 0 0 0 0 0 -0 -0 -0 -0 0 -0 0 0 -0 -0 -0 -0
0 0 0 0 0 0 0 0 0 0 0 0 0 0 0 0 0 0 0 0 0 0 0 0 0 0 0 0 0 0 0 0 0 -0 -0 0 -0 -0 -0 -0 0 -0 -0 -0
0 0 0 0 0 0 0 0 0 0 0 0 0 0 0 0 0 0 0 0 0 0 0 0 0 0 0 0 0 0 1 1 0 0 1 1 -0 -0 -0 -0 -0 -0 0 0
0 0 0 0 0 0 0 0 0 0 0 0 0 0 0 0 0 0 0 0 0 0 0 0 0 0 0 0 0 0 0 1 1 0 0 0 -0 -0 0 -0 -0 -0 -0 0
0 0 0 0 0 0 0 0 0 0 0 0 0 0 0 0 0 0 0 0 0 0 0 0 0 0 0 0 0 0 0 0 0 1 1 1 0 -0 0 -0 -0 -0 -0 -0
0 0 0 0 0 0 0 0 0 0 0 0 0 0 0 0 0 0 0 0 0 0 0 0 0 0 0 0 0 0 0 0 0 1 1 1 1 0 0 -0 -0 -0 -0 -0
0 0 0 0 0 0 0 0 0 0 0 0 0 0 0 0 0 0 0 0 0 0 0 0 0 0 0 0 0 0 0 0 0 1 1 0 0 0 0 0 0 0 -0 -0
0 0 0 0 0 0 0 0 0 0 0 0 0 0 0 0 0 0 0 0 0 0 0 0 0 0 0 0 0 0 0 0 0 1 1 1 1 0 0 1 1 0 0 0
0 0 0 0 0 0 0 0 0 0 0 0 0 0 0 0 0 0 0 0 0 0 0 0 0 0 1 0 0 1 0 1 1 2 1 1 2 1 1 1 1 0 0 0
0 0 0 0 0 0 0 0 0 0 0 0 0 0 0 0 0 0 0 0 0 0 0 0 0 0 0 0 0 1 1 1 1 2 1 2 2 2 2 2 2 1 1 1
0 0 0 0 0 -0 -0 0 0 0 0 0 0 0 0 0 0 0 0 0 0 0 0 0 0 0 0 0 0 0 0 0 1 2 2 3 3 3 3 2 2 2 1 1
0 0 0 0 0 -0 -0 0 0 0 0 0 0 0 0 0 0 1 1 0 0 0 1 1 1 1 0 0 0 0 0 1 1 1 2 3 3 2 2 3 2 2 1 2
0 0 0 0 0 0 0 0 0 0 0 0 0 0 0 0 0 0 0 0 0 1 1 1 1 1 1 0 0 1 0 0 1 1 1 2 2 2 2 2 2 2 2 2
0 0 0 0 0 0 0 0 0 0 0 0 0 0 0 0 0 0 0 0 0 0 0 1 2 2 1 1 0 0 0 0 0 0 0 1 2 2 2 2 3 3 2 1
-0 -0 -0 -0 -0 -0 -0 -0 0 0 0 0 0 0 1 0 0 0 0 0 0 0 1 1 2 1 1 1 0 2 1 0 0 0 0 1 2 3 2 2 3 3 2 2
0 -0 -0 -0 -0 -0 0 0 0 0 0 0 0 0 0 0 0 0 0 0 0 0 1 2 1 1 1 1 2 4 2 2 1 1 0 1 2 1 2 2 2 1 2 1
0 -0 0 0 0 -0 0 0 0 0 0 0 0 0 0 0 0 0 0 0 0 0 0 5 5 3 2 2 3 3 3 3 2 1 0 1 1 1 2 1 1 1 1 1
0 -0 -0 0 -0 0 0 0 0 0 0 0 0 0 0 0 0 0 0 0 0 0 0 1 3 6 9 7 5 3 4 5 2 0 1 0 1 1 2 1 1 1 0 0
-0 -0 -0 0 0 0 0 0 0 0 0 0 0 0 0 0 0 0 0 0 0 0 0 0 0 3 4 6 10 13 9 5 4 2 2 2 2 2 2 3 2 1 1 1
-0 -0 0 0 0 0 0 0 0 0 0 0 0 0 0 0 0 0 0 0 0 0 0 0 0 0 1 2 3 5 8 10 4 4 2 3 3 3 3 3 2 0 0 0
Wind_Speed_500mb
34 30 38 37 35 32 16 25 33 27 25 27 36 29 28 31 33 37 42 52 59 66 68 67 64 63 59 55 52 51 49 46 46 44 41 36 33 27 22 19 22 17 12 12
22 38 36 29 27 31 32 23 26 18 16 21 36 39 29 33 37 42 44 49 54 59 67 71 69 67 65 62 58 55 55 51 54 47 43 37 32 28 21 19 25 22 16 10
35 10 39 28 30 33 36 37 29 21 7 27 29 33 34 34 34 38 40 44 52 61 68 71 72 72 69 66 64 60 63 63 62 48 46 43 33 28 27 23 23 22 21 16
33 30 12 34 36 35 36 35 27 29 25 24 40 29 41 37 36 35 44 50 55 62 65 69 74 74 75 70 64 62 62 68 68 66 50 52 43 36 31 27 24 20 21 20
21 27 38 35 25 40 32 23 26 29 34 32 31 25 34 48 38 38 44 52 55 63 69 73 78 76 73 70 68 65 62 70 71 72 59 55 51 38 33 31 29 26 25 21
33 2 14 39 38 22 9 30 25 28 28 35 47 36 36 40 43 42 48 52 55 62 68 69 69 69 71 70 70 66 70 77 77 77 75 65 55 49 39 38 34 29 26 26
25 31 25 24 25 41 35 25 19 24 27 40 40 39 39 26 38 37 38 52 56 60 65 68 72 76 75 77 76 73 74 84 84 79 76 75 66 60 49 41 38 33 31 28
20 26 29 2 34 26 45 43 24 40 29 39 41 41 44 52 42 29 44 41 51 56 61 68 73 76 79 80 79 76 77 80 86 87 84 77 73 58 55 49 39 36 34 31
14 20 6 6 9 17 37 43 49 46 32 26 33 37 36 43 49 59 34 50 43 53 62 70 73 76 77 78 86 87 86 87 82 80 88 82 78 73 56 54 48 43 37 31
7 14 8 5 17 33 36 32 36 35 46 46 33 38 32 41 41 46 49 53 46 49 55 62 70 75 77 77 79 79 76 81 87 78 81 80 83 81 77 59 59 48 42 42
4 6 16 7 23 33 32 38 30 33 38 35 37 33 26 32 44 44 48 60 62 49 56 63 70 75 80 76 76 82 80 75 76 85 82 83 79 80 81 71 70 65 56 50
1 7 16 23 20 22 22 30 36 34 47 40 39 19 29 10 28 47 59 50 61 57 56 60 66 67 72 78 79 80 82 77 76 86 93 91 90 85 70 78 73 67 62 57
8 8 12 17 34 33 23 39 31 32 41 47 39 38 35 24 10 26 45 62 51 55 59 59 56 61 71 79 83 83 81 81 77 77 82 81 80 81 81 80 75 69 63 58
6 22 23 24 28 22 19 25 29 34 34 40 46 41 34 44 32 19 26 32 45 60 44 52 56 61 66 74 84 89 85 82 79 77 78 82 90 86 85 84 78 71 66 61
17 21 28 35 33 33 36 39 38 40 36 44 41 48 50 38 42 34 20 14 8 20 38 44 50 58 65 73 78 85 82 79 81 86 81 86 95 93 90 85 81 73 68 64
30 26 25 34 32 37 46 47 53 50 50 50 47 57 58 63 54 61 59 44 25 23 17 24 41 50 56 67 80 83 92 89 88 92 98 91 96 94 92 89 85 80 73 69
30 20 24 35 37 41 47 43 54 60 54 55 51 49 54 28 29 45 43 39 29 25 24 26 31 39 52 63 72 84 93 89 90 94 94 95 98 98 95 90 87 85 80 75
28 29 22 28 32 37 45 49 53 62 61 56 52 53 63 20 19 9 10 16 20 20 25 29 32 38 49 55 59 65 66 84 90 91 96 95 97 97 94 93 92 88 83 81
40 24 15 21 25 35 53 47 43 60 59 48 61 60 83 44 32 26 7 11 18 26 34 38 39 45 45 51 59 64 67 73 85 93 96 94 92 90 89 92 91 87 83 81
45 38 21 19 20 30 17 36 79 73 37 35 29 34 46 44 33 18 14 19 24 27 34 41 41 46 51 57 59 68 73 75 89 96 91 90 88 86 87 86 85 84 82 81
28 29 30 30 27 26 29 41 67 19 20 28 12 12 24 35 3 12 15 15 18 27 37 37 41 49 59 58 66 80 79 85 87 72 68 76 83 82 80 79 74 74 78 73
14 12 13 18 18 30 16 34 12 9 25 17 7 19 30 26 23 25 26 27 20 20 22 20 20 28 38 53 73 78 88 74 68 70 72 75 78 71 65 71 69 70 72 74
5 8 5 11 8 9 34 51 32 19 13 9 20 29 31 33 36 36 43 47 39 37 34 16 5 20 28 43 59 61 59 57 56 58 68 67 69 70 65 70 69 64 66 58
4 17 8 6 11 23 25 29 34 11 10 15 22 30 30 36 35 36 47 55 53 51 48 39 26 30 27 32 38 41 46 55 53 53 53 50 52 56 59 55 55 56 57 59
6 15 13 10 11 32 16 35 31 24 21 22 23 29 32 31 35 39 48 53 58 59 60 56 50 45 41 40 36 37 32 45 47 47 44 42 41 44 43 41 46 48 46 49
24 11 8 5 33 12 27 36 32 20 28 25 27 33 34 39 41 41 46 48 52 56 60 60 60 58 45 42 40 31 36 31 37 41 43 40 37 34 36 40 44 48 52 55
Wind_Direction_500mb
195 207 214 213 217 242 299 234 232 199 230 203 224 220 171 180 188 177 183 187 190 193 191 193 193 194 193 194 193 193 192 195 192 193 192 192 189 191 193 197 197 188 181 180
183 225 219 228 216 231 235 240 230 255 242 252 225 229 217 178 193 187 188 190 195 192 191 193 195 197 197 196 197 197 197 198 197 198 192 195 196 199 196 199 192 194 192 180
213 225 215 205 225 216 230 234 235 252 171 258 260 238 227 183 199 191 195 194 195 195 192 194 196 198 199 200 199 200 201 202 201 197 197 200 196 195 200 200 199 200 201 197
229 214 204 198 223 212 232 221 243 253 256 239 213 237 210 210 198 199 197 195 197 196 198 197 196 199 201 201 201 202 202 206 206 204 202 205 201 200 205 201 198 200 201 208
207 220 226 222 214 221 241 245 234 238 248 258 231 238 240 201 201 202 205 201 199 200 198 198 201 201 200 201 202 203 204 207 208 210 202 211 206 212 211 205 206 194 204 208
263 248 273 232 224 204 248 223 223 233 236 240 232 237 226 228 204 202 201 205 202 200 202 202 202 201 202 201 202 201 204 210 211 212 212 212 213 207 208 209 213 211 214 216
210 234 225 250 219 210 210 193 206 219 219 236 219 231 233 230 222 214 208 204 207 204 202 201 200 200 201 202 203 203 205 211 214 213 215 218 216 218 212 213 212 213 215 215
224 195 204 6 242 215 213 214 228 217 214 229 217 234 226 232 258 258 219 216 207 209 204 203 202 201 201 202 202 203 206 208 212 215 217 219 221 217 216 223 214 220 219 223
218 232 130 244 275 253 221 219 226 259 267 251 219 216 235 218 222 233 229 230 206 206 206 205 203 203 202 202 203 204 204 211 210 212 217 219 219 216 217 217 230 224 223 222
100 264 182 251 266 236 247 230 215 231 241 246 230 241 214 211 222 222 224 221 219 208 208 206 206 205 204 205 204 205 207 209 210 209 215 217 218 221 222 226 226 225 226 231
293 262 150 269 212 221 216 241 255 249 224 238 234 237 224 223 216 222 225 223 218 209 208 207 207 208 207 204 201 203 205 205 205 211 213 215 217 220 226 226 233 236 234 235
149 312 259 251 266 281 284 279 248 232 225 236 261 252 200 219 236 221 231 220 218 209 211 210 208 207 206 205 203 202 203 203 205 209 215 218 219 221 220 227 230 235 235 234
178 213 274 227 213 227 237 244 241 263 272 254 228 228 253 284 257 246 225 228 214 217 214 213 208 207 207 207 205 205 204 205 204 204 209 212 214 217 220 224 227 232 233 234
234 265 248 274 318 346 285 278 280 248 249 250 246 260 241 230 250 239 227 240 231 221 217 219 216 214 211 209 207 205 206 205 203 203 205 209 215 216 218 223 225 228 229 231
236 241 248 256 264 275 270 270 259 255 255 256 264 254 244 241 246 250 224 177 205 222 221 214 215 213 210 207 208 208 207 205 204 206 204 209 214 218 222 223 223 224 227 228
224 255 264 268 261 257 258 260 264 250 249 255 256 265 277 249 236 248 250 254 251 247 225 221 221 219 217 212 209 207 204 204 202 205 207 207 214 217 221 224 225 225 223 223
212 238 245 257 261 254 249 251 257 258 240 242 243 242 257 251 244 256 260 254 256 256 251 242 234 225 221 217 212 208 206 202 204 204 206 207 214 214 217 221 223 225 224 223
224 224 245 257 274 263 259 254 259 253 242 235 242 247 250 238 265 251 246 263 267 266 263 255 244 237 227 222 217 213 208 203 204 204 211 211 217 217 217 219 222 223 224 226
224 220 244 242 248 263 278 272 266 235 231 229 238 226 240 243 244 204 245 301 292 286 278 269 253 243 237 224 216 212 206 205 202 204 212 216 216 216 216 219 219 220 221 222
215 202 214 242 250 260 267 321 319 309 208 199 226 241 227 226 225 205 346 325 310 295 280 271 258 248 237 227 209 208 204 202 204 206 212 213 212 212 214 216 216 216 217 219
199 206 214 231 251 271 288 301 302 244 163 156 168 267 246 226 329 22 7 348 318 302 296 282 266 242 228 220 203 203 201 206 211 203 203 206 211 214 213 211 212 215 216 216
186 185 212 233 244 255 18 305 227 35 91 101 141 112 103 95 77 55 40 53 45 12 345 315 263 223 213 203 194 199 200 204 199 197 199 203 209 208 209 215 213 213 214 217
200 219 282 220 228 339 296 282 328 2 74 67 78 88 92 89 70 54 45 47 48 51 52 45 124 185 185 186 189 193 197 196 193 196 201 203 204 207 205 205 206 206 209 208
218 223 242 268 214 279 272 308 316 357 24 46 65 72 73 70 62 47 51 39 35 60 59 75 105 109 131 161 177 186 187 192 187 193 196 196 201 201 198 205 206 206 209 212
274 290 282 258 270 322 232 324 353 360 34 47 53 54 54 58 48 43 43 36 34 44 63 71 74 90 97 111 125 143 169 183 181 187 187 189 193 201 204 199 205 212 215 217
359 352 341 304 318 321 294 340 352 14 31 30 40 49 46 46 34 37 40 38 32 38 44 58 72 65 70 80 79 92 144 157 184 184 178 178 186 192 192 205 214 208 210 213
Wind_Speed_850mb
34 30 38 37 35 32 16 25 33 27 25 27 36 29 28 31 33 37 42 52 59 66 68 67 64 63 59 55 52 51 49 46 46 44 41 36 33 27 22 19 22 17 12 12
22 38 36 29 27 31 32 23 26 18 16 21 36 39 29 33 37 42 44 49 54 59 67 71 69 67 65 62 58 55 55 51 54 47 43 37 32 28 21 19 25 22 16 10
35 10 39 28 30 33 36 37 29 21 7 27 29 33 34 34 34 38 40 44 52 61 68 71 72 72 69 66 64 60 63 63 62 48 46 43 33 28 27 23 23 22 21 16
33 30 12 34 36 35 36 35 27 29 25 24 40 29 41 37 36 35 44 50 55 62 65 69 74 74 75 70 64 62 62 68 68 66 50 52 43 36 31 27 24 20 21 20
21 27 38 35 25 40 32 23 26 29 34 32 31 25 34 48 38 38 44 52 55 63 69 73 78 76 73 70 68 65 62 70 71 72 59 55 51 38 33 31 29 26 25 21
33 2 14 39 38 22 9 30 25 28 28 35 47 36 36 40 43 42 48 52 55 62 68 69 69 69 71 70 70 66 70 77 77 77 75 65 55 49 39 38 34 29 26 26
25 31 25 24 25 41 35 25 19 24 27 40 40 39 39 26 38 37 38 52 56 60 65 68 72 76 75 77 76 73 74 84 84 79 76 75 66 60 49 41 38 33 31 28
20 26 29 2 34 26 45 43 24 40 29 39 41 41 44 52 42 29 44 41 51 56 61 68 73 76 79 80 79 76 77 80 86 87 84 77 73 58 55 49 39 36 34 31
14 20 6 6 9 17 37 43 49 46 32 26 33 37 36 43 49 59 34 50 43 53 62 70 73 76 77 78 86 87 86 87 82 80 88 82 78 73 56 54 48 43 37 31
7 14 8 5 17 33 36 32 36 35 46 46 33 38 32 41 41 46 49 53 46 49 55 62 70 75 77 77 79 79 76 81 87 78 81 80 83 81 77 59 59 48 42 42
4 6 16 7 23 33 32 38 30 33 38 35 37 33 26 32 44 44 48 60 62 49 56 63 70 75 80 76 76 82 80 75 76 85 82 83 79 80 81 71 70 65 56 50
1 7 16 23 20 22 22 30 36 34 47 40 39 19 29 10 28 47 59 50 61 57 56 60 66 67 72 78 79 80 82 77 76 86 93 91 90 85 70 78 73 67 62 57
8 8 12 17 34 33 23 39 31 32 41 47 39 38 35 24 10 26 45 62 51 55 59 59 56 61 71 79 83 83 81 81 77 77 82 81 80 81 81 80 75 69 63 58
6 22 23 24 28 22 19 25 29 34 34 40 46 41 34 44 32 19 26 32 45 60 44 52 56 61 66 74 84 89 85 82 79 77 78 82 90 86 85 84 78 71 66 61
17 21 28 35 33 33 36 39 38 40 36 44 41 48 50 38 42 34 20 14 8 20 38 44 50 58 65 73 78 85 82 79 81 86 81 86 95 93 90 85 81 73 68 64
30 26 25 34 32 37 46 47 53 50 50 50 47 57 58 63 54 61 59 44 25 23 17 24 41 50 56 67 80 83 92 89 88 92 98 91 96 94 92 89 85 80 73 69
30 20 24 35 37 41 47 43 54 60 54 55 51 49 54 28 29 45 43 39 29 25 24 26 31 39 52 63 72 84 93 89 90 94 94 95 98 98 95 90 87 85 80 75
28 29 22 28 32 37 45 49 53 62 61 56 52 53 63 20 19 9 10 16 20 20 25 29 32 38 49 55 59 65 66 84 90 91 96 95 97 97 94 93 92 88 83 81
40 24 15 21 25 35 53 47 43 60 59 48 61 60 83 44 32 26 7 11 18 26 34 38 39 45 45 51 59 64 67 73 85 93 96 94 92 90 89 92 91 87 83 81
45 38 21 19 20 30 17 36 79 73 37 35 29 34 46 44 33 18 14 19 24 27 34 41 41 46 51 57 59 68 73 75 89 96 91 90 88 86 87 86 85 84 82 81
28 29 30 30 27 26 29 41 67 19 20 28 12 12 24 35 3 12 15 15 18 27 37 37 41 49 59 58 66 80 79 85 87 72 68 76 83 82 80 79 74 74 78 73
14 12 13 18 18 30 16 34 12 9 25 17 7 19 30 26 23 25 26 27 20 20 22 20 20 28 38 53 73 78 88 74 68 70 72 75 78 71 65 71 69 70 72 74
5 8 5 11 8 9 34 51 32 19 13 9 20 29 31 33 36 36 43 47 39 37 34 16 5 20 28 43 59 61 59 57 56 58 68 67 69 70 65 70 69 64 66 58
4 17 8 6 11 23 25 29 34 11 10 15 22 30 30 36 35 36 47 55 53 51 48 39 26 30 27 32 38 41 46 55 53 53 53 50 52 56 59 55 55 56 57 59
6 15 13 10 11 32 16 35 31 24 21 22 23 29 32 31 35 39 48 53 58 59 60 56 50 45 41 40 36 37 32 45 47 47 44 42 41 44 43 41 46 48 46 49
24 11 8 5 33 12 27 36 32 20 28 25 27 33 34 39 41 41 46 48 52 56 60 60 60 58 45 42 40 31 36 31 37 41 43 40 37 34 36 40 44 48 52 55
Wind_Direction_850mb
195 207 214 213 217 242 299 234 232 199 230 203 224 220 171 180 188 177 183 187 190 193 191 193 193 194 193 194 193 193 192 195 192 193 192 192 189 191 193 197 197 188 181 180
183 225 219 228 216 231 235 240 230 255 242 252 225 229 217 178 193 187 188 190 195 192 191 193 195 197 197 196 197 197 197 198 197 198 192 195 196 199 196 199 192 194 192 180
213 225 215 205 225 216 230 234 235 252 171 258 260 238 227 183 199 191 195 194 195 195 192 194 196 198 199 200 199 200 201 202 201 197 197 200 196 195 200 200 199 200 201 197
229 214 204 198 223 212 232 221 243 253 256 239 213 237 210 210 198 199 197 195 197 196 198 197 196 199 201 201 201 202 202 206 206 204 202 205 201 200 205 201 198 200 201 208
207 220 226 222 214 221 241 245 234 238 248 258 231 238 240 201 201 202 205 201 199 200 198 198 201 201 200 201 202 203 204 207 208 210 202 211 206 212 211 205 206 194 204 208
263 248 273 232 224 204 248 223 223 233 236 240 232 237 226 228 204 202 201 205 202 200 202 202 202 201 202 201 202 201 204 210 211 212 212 212 213 207 208 209 213 211 214 216
210 234 225 250 219 210 210 193 206 219 219 236 219 231 233 230 222 214 208 204 207 204 202 201 200 200 201 202 203 203 205 211 214 213 215 218 216 218 212 213 212 213 215 215
224 195 204 6 242 215 213 214 228 217 214 229 217 234 226 232 258 258 219 216 207 209 204 203 202 201 201 202 202 203 206 208 212 215 217 219 221 217 216 223 214 220 219 223
218 232 130 244 275 253 221 219 226 259 267 251 219 216 235 218 222 233 229 230 206 206 206 205 203 203 202 202 203 204 204 211 210 212 217 219 219 216 217 217 230 224 223 222
100 264 182 251 266 236 247 230 215 231 241 246 230 241 214 211 222 222 224 221 219 208 208 206 206 205 204 205 204 205 207 209 210 209 215 217 218 221 222 226 226 225 226 231
293 262 150 269 212 221 216 241 255 249 224 238 234 237 224 223 216 222 225 223 218 209 208 207 207 208 207 204 201 203 205 205 205 211 213 215 217 220 226 226 233 236 234 235
149 312 259 251 266 281 284 279 248 232 225 236 261 252 200 219 236 221 231 220 218 209 211 210 208 207 206 205 203 202 203 203 205 209 215 218 219 221 220 227 230 235 235 234
178 213 274 227 213 227 237 244 241 263 272 254 228 228 253 284 257 246 225 228 214 217 214 213 208 207 207 207 205 205 204 205 204 204 209 212 214 217 220 224 227 232 233 234
234 265 248 274 318 346 285 278 280 248 249 250 246 260 241 230 250 239 227 240 231 221 217 219 216 214 211 209 207 205 206 205 203 203 205 209 215 216 218 223 225 228 229 231
236 241 248 256 264 275 270 270 259 255 255 256 264 254 244 241 246 250 224 177 205 222 221 214 215 213 210 207 208 208 207 205 204 206 204 209 214 218 222 223 223 224 227 228
224 255 264 268 261 257 258 260 264 250 249 255 256 265 277 249 236 248 250 254 251 247 225 221 221 219 217 212 209 207 204 204 202 205 207 207 214 217 221 224 225 225 223 223
212 238 245 257 261 254 249 251 257 258 240 242 243 242 257 251 244 256 260 254 256 256 251 242 234 225 221 217 212 208 206 202 204 204 206 207 214 214 217 221 223 225 224 223
224 224 245 257 274 263 259 254 259 253 242 235 242 247 250 238 265 251 246 263 267 266 263 255 244 237 227 222 217 213 208 203 204 204 211 211 217 217 217 219 222 223 224 226
224 220 244 242 248 263 278 272 266 235 231 229 238 226 240 243 244 204 245 301 292 286 278 269 253 243 237 224 216 212 206 205 202 204 212 216 216 216 216 219 219 220 221 222
215 202 214 242 250 260 267 321 319 309 208 199 226 241 227 226 225 205 346 325 310 295 280 271 258 248 237 227 209 208 204 202 204 206 212 213 212 212 214 216 216 216 217 219
199 206 214 231 251 271 288 301 302 244 163 156 168 267 246 226 329 22 7 348 318 302 296 282 266 242 228 220 203 203 201 206 211 203 203 206 211 214 213 211 212 215 216 216
186 185 212 233 244 255 18 305 227 35 91 101 141 112 103 95 77 55 40 53 45 12 345 315 263 223 213 203 194 199 200 204 199 197 199 203 209 208 209 215 213 213 214 217
200 219 282 220 228 339 296 282 328 2 74 67 78 88 92 89 70 54 45 47 48 51 52 45 124 185 185 186 189 193 197 196 193 196 201 203 204 207 205 205 206 206 209 208
218 223 242 268 214 279 272 308 316 357 24 46 65 72 73 70 62 47 51 39 35 60 59 75 105 109 131 161 177 186 187 192 187 193 196 196 201 201 198 205 206 206 209 212
274 290 282 258 270 322 232 324 353 360 34 47 53 54 54 58 48 43 43 36 34 44 63 71 74 90 97 111 125 143 169 183 181 187 187 189 193 201 204 199 205 212 215 217
359 352 341 304 318 321 294 340 352 14 31 30 40 49 46 46 34 37 40 38 32 38 44 58 72 65 70 80 79 92 144 157 184 184 178 178 186 192 192 205 214 208 210 213